HULIANWANG DIGUI 6H

Last updated on Thu Aug 14 2025 00:02:07 GMT+0000 (Coordinated Universal Time)

1 65050U 25162H 25224.72934591 .00000006 00000+0 95186-4 0 9995 2 65050 50.0050 320.4072 0007187 327.9590 32.0878 14.06381059 1897
UTC large
Height (km)
Speed (km/s)
/
Latitude / Longitude
Inclination (degrees)
Orbital Period (minutes)
Azimuth
Elevation
Range (km)
Doppler Factor

Next 0 passes for location: London (51.5072 / 0.1276)

Sorry there are no passes over London.